Regional Weather Roundup
Issued by NWS Cleveland, OH

Home | Current Version | Previous Version | Text Only | Print | Product List | Glossary Off
Versions: 1 2 3 4 5 6 7 8 9 10 11 12 13 14 15 16 17 18 19 20 21 22 23 24 25 26 27 28 29 30 31 32 33 34 35 36 37 38 39 40 41 42 43 44 45 46 47 48 49 50

280
ASUS41 KCLE 201912
RWRCLE
OHIO REGIONAL WEATHER ROUNDUP
NATIONAL WEATHER SERVICE WILMINGTON, OH
200 PM EST TUE FEB 20 2018

NOTE: "FAIR" INDICATES FEW OR NO CLOUDS BELOW 12,000 FEET WITH NO
SIGNIFICANT WEATHER AND/OR OBSTRUCTIONS TO VISIBILITY.

OHZ001>008-015>018-024>027-034-035-043-044-202000-
   NORTHWEST OHIO

CITY           SKY/WX    TMP DP  RH WIND       PRES   REMARKS
DEFIANCE       LGT RAIN  62  59  90 SW10G22   30.01F
FINDLAY        CLOUDY    65  59  81 SW8       30.05F
TOLEDO EXPRESS LGT RAIN  63  63 100 SW12      30.03S FOG
TOLEDO EXEC    LGT RAIN  64  60  87 S21G28    30.05S FOG
LIMA           CLOUDY    70  60  70 S17G24    30.05F
$$

OHZ009>014-019>023-028>033-038-089-202000-
   NORTHEAST OHIO

CITY           SKY/WX    TMP DP  RH WIND       PRES   REMARKS
CLE-HOPKINS    CLOUDY    67  60  78 S8        30.12F
CLE-LAKEFRONT  CLOUDY    66  58  75 S10       30.08F
CUY CO. ARPT   CLOUDY    66  61  82 S13       30.11F
LORAIN-ELYRIA  CLOUDY    67  54  63 SW8G20    30.09F
ASHTABULA      CLOUDY    64  59  83 SW14      30.13R
AKRON-CANTON   PTSUNNY   72  56  57 SW16G30   30.13S
WOOSTER        PTSUNNY   71  57  61 SW17G24   30.12S
MANSFIELD      PTSUNNY   70  57  63 SW25G37   30.11S
YOUNGSTOWN     CLOUDY    68  56  65 SW10G20   30.15R
$$

OHZ042-051>053-060>062-070>072-077>081-202000-
  SOUTHWEST OHIO

CITY           SKY/WX    TMP DP  RH WIND       PRES   REMARKS
CINC-COVINGTON PTSUNNY   76  56  49 SW17G35   30.11F
CINC-LUNKEN    FAIR      79  55  43 SW23G33   30.11F
HAMILTON       FAIR      77  56  48 SW20G30   30.10F
DAYTON         PTSUNNY   73  58  59 S24G37    30.09F
WRIGHT-PAT AFB FAIR      75  55  49 S28G33    30.09F
DAYTON GENERAL PTSUNNY   76  54  46 SW20G36   30.10F
WILMINGTON     FAIR      75  59  57 S21G30    30.12F
$$

OHZ036-037-039>041-045>050-054>059-063>069-073>076-082>088-202000-
  CENTRAL AND SOUTHEAST OHIO

CITY           SKY/WX    TMP DP  RH WIND       PRES   REMARKS
COLUMBUS       CLOUDY    76  57  51 SW23G32   30.13F
OSU AIRPORT    FAIR      74  58  57 S26G38    30.11F
BOLTON FIELD   SUNNY     75  57  53 SW25G35   30.13F
RICKENBACK AFB FAIR      75  56  51 SW24G31   30.13S
NEWARK         FAIR      76  55  48 SW18G29   30.13F
MARION         FAIR      70  57  63 SW18G28   30.10F
LANCASTER      FAIR      77  54  44 SW17G32   30.14F
ZANESVILLE     FAIR      76  54  46 SW14G25   30.15F
NEW PHILLY     FAIR      76  55  48 SW14G25   30.15F
$$




USA.gov is the U.S. government's official web portal to all federal, state and local government web resources and services.